User: anonymous   Login
Location: Unspecified
(0.0000°N, 0.0000°E)
Time: 06:25:31
(UTC+02:00)
Language:

Ariane H10 - Orbit

View from above orbital plane
View from above orbital plane
View from above satellite
View from above satellite

Ground track
Ground track

The orbit data is extracted from the following two-line orbital elements,

1 21727U 91067B   15149.22767922  .00000052  00000-0  26816-3 0  9992
2 21727 004.2759 283.1707 7175298 257.3915 008.2215 02.31581212160546
Epoch (UTC): 29 May 2015 05:27:51
Eccentricity: 0.7175298
inclination: 4.2759°
perigee height: 438 km
apogee height: 35069 km
right ascension of ascending node: 283.1707°
argument of perigee: 257.3915°
revolutions per day: 2.31581212
mean anomaly at epoch: 8.2215°
orbit number at epoch: 16054

The dashed part of the orbit path shows where the satellite is in the earth's shadow,  

DLR